{"data":{"norad_id":64525,"intl_designator":"2025-134AB","name":"KUIPER-00065","alt_names":[],"object_type":"PAYLOAD","status":"ACTIVE","operator":null,"country":"US","launch_date":"2025-06-23","launch_site_code":"AFETR","launch_vehicle":null,"mission":null,"orbit_class":"UNKNOWN","rcs_meters":null,"size_class":null,"mass_kg":null,"dimensions":null,"purposes":[],"wikipedia_slug":null,"has_3d_model":false,"image_url":null,"decayed_at":null,"tle_current":{"epoch":"2026-05-25T01:35:01.350240Z","epoch_age_seconds":66185,"freshness":"FRESH","line1":"1 64525U 25134AB  26145.06598785  .00001631  00000+0  24290-3 0  9993","line2":"2 64525  51.9031 262.9714 0000422 114.8124 245.2882 14.79937046 51268","mean_motion":14.79937046,"eccentricity":4.22e-5,"inclination_deg":51.9031,"raan_deg":262.9714,"arg_perigee_deg":114.8124,"mean_anomaly_deg":245.2882,"bstar":0.0002429,"rev_number":5126,"period_min":97.301436158522,"perigee_km":629.22713373873,"apogee_km":629.81858023066,"semimajor_km":7007.6598569847,"source":"CELESTRAK","updated_at":"2026-05-25T13:38:04.578683Z"}}}